,,Stat5,,Stat1,,Stat2,,Stat3,,Stat4,,Wind1,,Wind1,
time,status,PA1M_AVG,status,PR1M_SUM,status,RH1M_AVG,status,SR1M_AVG,status,TA1M_AVG,status,W1dAve1m,status,W1sAve1m,
2002-12-20, 00:00:00,VALID,916.569,VALID,0,VALID,92.8399,VALID,-0.0169808,VALID,20.8711,VALID,73,VALID,0.863982,
2002-12-20, 00:01:00,VALID,916.553,VALID,0,VALID,92.8233,VALID,-0.0849042,VALID,20.8841,VALID,69,VALID,0.788218,
2002-12-20, 00:02:00,VALID,916.578,VALID,0,VALID,92.953,VALID,-0.0169808,VALID,20.8905,VALID,126,VALID,0.317627,
2002-12-20, 00:03:00,VALID,916.597,VALID,0,VALID,93.0535,VALID,-0.0509425,VALID,20.894,VALID,145,VALID,0.470486,
2002-12-20, 00:04:00,VALID,916.626,VALID,0,VALID,93.0306,VALID,-0.0679233,VALID,20.8873,VALID,124,VALID,0.645616,
2002-12-20, 00:05:00,VALID,916.639,VALID,0,VALID,93.215,VALID,-0.0849042,VALID,20.8973,VALID,70,VALID,0.809422,
2002-12-20, 00:06:00,VALID,916.645,VALID,0,VALID,93.1094,VALID,-0.0339617,VALID,20.9032,VALID,120,VALID,0.674913,
2002-12-20, 00:07:00,VALID,916.641,VALID,0,VALID,92.8716,VALID,-0.0339617,VALID,20.9134,VALID,47,VALID,1.12131,
2002-12-20, 00:08:00,VALID,916.648,VALID,0,VALID,92.9263,VALID,-0.0509425,VALID,20.9393,VALID,20,VALID,1.4884,
2002-12-20, 00:09:00,VALID,916.648,VALID,0,VALID,92.8042,VALID,-0.0169808,VALID,20.9554,VALID,33,VALID,1.5038,
2002-12-20, 00:10:00,VALID,916.646,VALID,0,VALID,93.0726,VALID,-0.0339617,VALID,20.942,VALID,47,VALID,0.684743,
2002-12-20, 00:11:00,VALID,916.639,VALID,0,VALID,92.5181,VALID,-0.0339617,VALID,20.9099,VALID,85,VALID,0.953835,
2002-12-20, 00:12:00,VALID,916.627,VALID,0,VALID,92.3808,VALID,-0.0509425,VALID,20.8943,VALID,63,VALID,0.620226,
2002-12-20, 00:13:00,VALID,916.605,VALID,0,VALID,92.3172,VALID,-0.101885,VALID,20.9266,VALID,31,VALID,0.809245,
2002-12-20, 00:14:00,VALID,916.573,VALID,0,VALID,92.3948,VALID,-0.0509425,VALID,20.9595,VALID,14,VALID,0.564394,
2002-12-20, 00:15:00,VALID,916.556,VALID,0,VALID,92.3439,VALID,-0.0509425,VALID,20.9654,VALID,15,VALID,0.572424,
2002-12-20, 00:16:00,VALID,916.557,VALID,0,VALID,92.4431,VALID,-0.101885,VALID,20.9517,VALID,22,VALID,0.178079,
2002-12-20, 00:17:00,VALID,916.566,VALID,0,VALID,92.8271,VALID,-0.0339617,VALID,20.9614,VALID,104,VALID,0.250473,
2002-12-20, 00:18:00,VALID,916.53,VALID,0,VALID,92.9772,VALID,-0.0169808,VALID,20.939,VALID,126,VALID,0.00217014,
2002-12-20, 00:19:00,VALID,916.522,VALID,0,VALID,93.1514,VALID,-0.0509425,VALID,20.9229,VALID,126,VALID,0,
2002-12-20, 00:20:00,VALID,916.494,VALID,0,VALID,93.1196,VALID,-0.0339617,VALID,20.9032,VALID,126,VALID,0,
2002-12-20, 00:21:00,VALID,916.462,VALID,0,VALID,92.8882,VALID,-0.0509425,VALID,20.8773,VALID,126,VALID,0,
2002-12-20, 00:22:00,VALID,916.447,VALID,0,VALID,93.0153,VALID,-0.0509425,VALID,20.8876,VALID,126,VALID,0.0137868,
2002-12-20, 00:23:00,VALID,916.434,VALID,0,VALID,93.4184,VALID,-0.0169808,VALID,20.89,VALID,110,VALID,0.0378788,
2002-12-20, 00:24:00,VALID,916.4,VALID,0,VALID,93.337,VALID,-0.0169808,VALID,20.8738,VALID,348,VALID,0.511285,
2002-12-20, 00:25:00,VALID,916.377,VALID,0,VALID,92.2867,VALID,-0.0339617,VALID,20.8779,VALID,352,VALID,0.726128,
2002-12-20, 00:26:00,VALID,916.349,VALID,0,VALID,91.6204,VALID,0,VALID,20.9417,VALID,339,VALID,0.594697,
2002-12-20, 00:27:00,VALID,916.343,VALID,0,VALID,90.7353,VALID,0,VALID,21.0489,VALID,348,VALID,1.73564,
2002-12-20, 00:28:00,VALID,916.36,VALID,0,VALID,90.5052,VALID,0,VALID,21.1391,VALID,29,VALID,0.845588,
2002-12-20, 00:29:00,VALID,916.364,VALID,0,VALID,90.1173,VALID,-0.0169808,VALID,21.1426,VALID,34,VALID,0.975142,
2002-12-20, 00:30:00,VALID,916.392,VALID,0,VALID,90.2801,VALID,-0.0849042,VALID,21.1302,VALID,44,VALID,0.798611,
2002-12-20, 00:31:00,VALID,916.402,VALID,0,VALID,90.1415,VALID,-0.0509425,VALID,21.1073,VALID,63,VALID,0.840929,
2002-12-20, 00:32:00,VALID,916.417,VALID,0,VALID,89.9419,VALID,-0.0679233,VALID,21.1071,VALID,60,VALID,1.55279,
2002-12-20, 00:33:00,VALID,916.393,VALID,0,VALID,89.3442,VALID,-0.0339617,VALID,21.1693,VALID,61,VALID,1.7386,
2002-12-20, 00:34:00,VALID,916.406,VALID,0,VALID,89.6023,VALID,-0.0339617,VALID,21.2075,VALID,77,VALID,1.32215,
2002-12-20, 00:35:00,VALID,916.393,VALID,0,VALID,89.7346,VALID,-0.0679233,VALID,21.1951,VALID,81,VALID,0.855824,
2002-12-20, 00:36:00,VALID,916.37,VALID,0,VALID,90.4874,VALID,-0.0849042,VALID,21.1529,VALID,81,VALID,0.832248,
2002-12-20, 00:37:00,VALID,916.341,VALID,0,VALID,91.1626,VALID,-0.0339617,VALID,21.0715,VALID,70,VALID,1.12326,
2002-12-20, 00:38:00,VALID,916.305,VALID,0,VALID,90.5471,VALID,-0.0509425,VALID,21.0101,VALID,82,VALID,1.26989,
2002-12-20, 00:39:00,VALID,916.281,VALID,0,VALID,90.5586,VALID,-0.0509425,VALID,21.0362,VALID,79,VALID,1.15351,
2002-12-20, 00:40:00,VALID,916.253,VALID,0,VALID,90.2038,VALID,-0.0509425,VALID,21.0325,VALID,72,VALID,1.74311,
2002-12-20, 00:41:00,VALID,916.24,VALID,0,VALID,89.7944,VALID,-0.0679233,VALID,21.0551,VALID,85,VALID,1.58381,
2002-12-20, 00:42:00,VALID,916.234,VALID,0,VALID,89.2806,VALID,-0.0339617,VALID,21.1232,VALID,43,VALID,2.13845,
2002-12-20, 00:43:00,VALID,916.221,VALID,0,VALID,88.936,VALID,-0.0169808,VALID,21.1984,VALID,58,VALID,1.96029,
2002-12-20, 00:44:00,VALID,916.216,VALID,0,VALID,89.0339,VALID,-0.0509425,VALID,21.2269,VALID,47,VALID,1.59115,
2002-12-20, 00:45:00,VALID,916.22,VALID,0,VALID,88.8941,VALID,-0.0339617,VALID,21.2105,VALID,46,VALID,1.59966,
2002-12-20, 00:46:00,VALID,916.222,VALID,0,VALID,88.4337,VALID,-0.0169808,VALID,21.2334,VALID,43,VALID,2.14384,
2002-12-20, 00:47:00,VALID,916.198,VALID,0,VALID,88.0421,VALID,-0.0509425,VALID,21.3269,VALID,30,VALID,1.36766,
2002-12-20, 00:48:00,VALID,916.19,VALID,0,VALID,88.0612,VALID,-0.101885,VALID,21.3659,VALID,78,VALID,0.685547,
2002-12-20, 00:49:00,VALID,916.159,VALID,0,VALID,88.0917,VALID,-0.0169808,VALID,21.3594,VALID,69,VALID,0.640842,
2002-12-20, 00:50:00,VALID,916.154,VALID,0,VALID,88.2048,VALID,-0.0509425,VALID,21.3365,VALID,60,VALID,0.532907,
2002-12-20, 00:51:00,VALID,916.132,VALID,0,VALID,88.4261,VALID,-0.0339617,VALID,21.304,VALID,50,VALID,0.291385,
2002-12-20, 00:52:00,VALID,916.104,VALID,0,VALID,88.2786,VALID,-0.0169808,VALID,21.2948,VALID,59,VALID,0.517693,
2002-12-20, 00:53:00,VALID,916.083,VALID,0,VALID,88.0027,VALID,-0.0339617,VALID,21.2978,VALID,67,VALID,0.533381,
2002-12-20, 00:54:00,VALID,916.076,VALID,0,VALID,88.0917,VALID,-0.0169808,VALID,21.3363,VALID,74,VALID,0.371745,
2002-12-20, 00:55:00,VALID,916.048,VALID,0,VALID,88.3346,VALID,-0.0509425,VALID,21.3462,VALID,76,VALID,0.407335,
2002-12-20, 00:56:00,VALID,916.036,VALID,0,VALID,88.697,VALID,-0.0339617,VALID,21.3037,VALID,84,VALID,0.294034,
2002-12-20, 00:57:00,VALID,916.03,VALID,0,VALID,89.4434,VALID,-0.0169808,VALID,21.2611,VALID,109,VALID,0.443623,
2002-12-20, 00:58:00,VALID,916.011,VALID,0,VALID,89.9749,VALID,-0.0339617,VALID,21.1976,VALID,142,VALID,0.953125,
2002-12-20, 00:59:00,VALID,915.985,VALID,0,VALID,90.5344,VALID,-0.0339617,VALID,21.0678,VALID,133,VALID,0.762547,
2002-12-20, 01:00:00,VALID,915.968,VALID,0,VALID,90.9655,VALID,-0.0509425,VALID,20.9546,VALID,142,VALID,0.810981,
2002-12-20, 01:01:00,VALID,915.958,VALID,0,VALID,91.4106,VALID,-0.0849042,VALID,20.8746,VALID,125,VALID,0.828993,
2002-12-20, 01:02:00,VALID,915.914,VALID,0,VALID,91.7208,VALID,-0.0509425,VALID,20.8165,VALID,149,VALID,0.67803,
2002-12-20, 01:03:00,VALID,915.885,VALID,0,VALID,91.8925,VALID,-0.0509425,VALID,20.7745,VALID,137,VALID,0.881546,
2002-12-20, 01:04:00,VALID,915.87,VALID,0,VALID,91.9472,VALID,-0.0509425,VALID,20.7287,VALID,108,VALID,0.706112,
2002-12-20, 01:05:00,VALID,915.884,VALID,0,VALID,92.1672,VALID,-0.0339617,VALID,20.7187,VALID,99,VALID,0.540246,
2002-12-20, 01:06:00,VALID,915.898,VALID,0,VALID,92.7635,VALID,-0.0169808,VALID,20.7031,VALID,30,VALID,0.346788,
2002-12-20, 01:07:00,VALID,915.902,VALID,0,VALID,93.0764,VALID,-0.0679233,VALID,20.6584,VALID,3,VALID,0.963976,
2002-12-20, 01:08:00,VALID,915.913,VALID,0,VALID,93.304,VALID,-0.0339617,VALID,20.5773,VALID,6,VALID,1.1849,
2002-12-20, 01:09:00,VALID,915.907,VALID,0,VALID,93.6066,VALID,-0.0509425,VALID,20.5062,VALID,5,VALID,0.96516,
2002-12-20, 01:10:00,VALID,915.914,VALID,0,VALID,93.7579,VALID,-0.0339617,VALID,20.4578,VALID,12,VALID,0.71875,
2002-12-20, 01:11:00,VALID,915.904,VALID,0,VALID,93.9233,VALID,-0.0169808,VALID,20.416,VALID,12,VALID,0.5116,
2002-12-20, 01:12:00,VALID,915.886,VALID,0,VALID,94.1165,VALID,-0.0509425,VALID,20.3794,VALID,12,VALID,0.223741,
2002-12-20, 01:13:00,VALID,915.835,VALID,0,VALID,94.2068,VALID,-0.0509425,VALID,20.38,VALID,12,VALID,0.0227865,
2002-12-20, 01:14:00,VALID,915.803,VALID,0,VALID,94.2462,VALID,-0.0679233,VALID,20.3673,VALID,12,VALID,0.122633,
2002-12-20, 01:15:00,VALID,915.774,VALID,0,VALID,94.1788,VALID,-0.0679233,VALID,20.3544,VALID,12,VALID,0.316723,
2002-12-20, 01:16:00,VALID,915.742,VALID,0,VALID,94.2857,VALID,-0.0509425,VALID,20.3315,VALID,80,VALID,0.610754,
2002-12-20, 01:17:00,VALID,915.712,VALID,0,VALID,94.4967,VALID,-0.0849042,VALID,20.3156,VALID,129,VALID,0.740294,
2002-12-20, 01:18:00,VALID,915.687,VALID,0,VALID,94.6697,VALID,-0.0679233,VALID,20.2992,VALID,136,VALID,0.776042,
2002-12-20, 01:19:00,VALID,915.641,VALID,0,VALID,94.8706,VALID,-0.101885,VALID,20.2738,VALID,143,VALID,0.801432,
2002-12-20, 01:20:00,VALID,915.599,VALID,0,VALID,95.1364,VALID,-0.0849042,VALID,20.238,VALID,145,VALID,0.845407,
2002-12-20, 01:21:00,VALID,915.584,VALID,0,VALID,95.3462,VALID,-0.0509425,VALID,20.2189,VALID,138,VALID,0.714105,
2002-12-20, 01:22:00,VALID,915.597,VALID,0,VALID,95.5229,VALID,0,VALID,20.1848,VALID,134,VALID,0.776884,
2002-12-20, 01:23:00,VALID,915.613,VALID,0,VALID,95.7874,VALID,0,VALID,20.1721,VALID,129,VALID,0.786695,
2002-12-20, 01:24:00,VALID,915.611,VALID,0,VALID,95.8853,VALID,0.0169808,VALID,20.149,VALID,118,VALID,1.0829,
2002-12-20, 01:25:00,VALID,915.593,VALID,0,VALID,95.8052,VALID,0,VALID,20.1659,VALID,105,VALID,0.924913,
2002-12-20, 01:26:00,VALID,915.589,VALID,0,VALID,95.7099,VALID,-0.0169808,VALID,20.1818,VALID,78,VALID,0.971828,
2002-12-20, 01:27:00,VALID,915.583,VALID,0,VALID,95.659,VALID,0,VALID,20.1754,VALID,76,VALID,1.22551,
2002-12-20, 01:28:00,VALID,915.574,VALID,0,VALID,95.8332,VALID,0,VALID,20.159,VALID,92,VALID,1.35501,
2002-12-20, 01:29:00,VALID,915.57,VALID,0,VALID,95.9655,VALID,0.0169808,VALID,20.1659,VALID,99,VALID,1.39915,
2002-12-20, 01:30:00,VALID,915.532,VALID,0,VALID,95.8561,VALID,0.0169808,VALID,20.1953,VALID,112,VALID,1.5076,
2002-12-20, 01:31:00,VALID,915.481,VALID,0,VALID,95.72,VALID,0.0169808,VALID,20.2375,VALID,116,VALID,1.33377,
2002-12-20, 01:32:00,VALID,915.44,VALID,0,VALID,95.6946,VALID,0,VALID,20.2435,VALID,126,VALID,0.777699,
2002-12-20, 01:33:00,VALID,915.392,VALID,0,VALID,95.7696,VALID,0,VALID,20.2241,VALID,115,VALID,1.25612,
2002-12-20, 01:34:00,VALID,915.365,VALID,0,VALID,95.8942,VALID,0.0169808,VALID,20.2045,VALID,117,VALID,1.67463,
2002-12-20, 01:35:00,VALID,915.34,VALID,0,VALID,96.2414,VALID,0.0169808,VALID,20.1657,VALID,132,VALID,1.12453,
2002-12-20, 01:36:00,VALID,915.321,VALID,0,VALID,96.4906,VALID,0.0169808,VALID,20.1361,VALID,133,VALID,0.864149,
2002-12-20, 01:37:00,VALID,915.304,VALID,0,VALID,96.6941,VALID,0.0169808,VALID,20.121,VALID,121,VALID,1.28711,
2002-12-20, 01:38:00,VALID,915.297,VALID,0,VALID,96.82,VALID,0.0339617,VALID,20.0916,VALID,119,VALID,1.07008,
2002-12-20, 01:39:00,VALID,915.283,VALID,0,VALID,96.9459,VALID,0.0169808,VALID,20.0658,VALID,109,VALID,0.757813,
2002-12-20, 01:40:00,VALID,915.286,VALID,0,VALID,97.0552,VALID,0.0169808,VALID,20.0429,VALID,127,VALID,0.667509,
2002-12-20, 01:41:00,VALID,915.285,VALID,0,VALID,97.176,VALID,0.0169808,VALID,20.0302,VALID,134,VALID,1.06723,
2002-12-20, 01:42:00,VALID,915.283,VALID,0,VALID,97.2854,VALID,0.0679233,VALID,20.0171,VALID,143,VALID,0.949653,
2002-12-20, 01:43:00,VALID,915.269,VALID,0,VALID,97.349,VALID,0,VALID,20.0109,VALID,147,VALID,1.18663,
2002-12-20, 01:44:00,VALID,915.242,VALID,0,VALID,97.4214,VALID,0.0169808,VALID,19.9979,VALID,124,VALID,1.11813,
2002-12-20, 01:45:00,VALID,915.225,VALID,0,VALID,97.4952,VALID,0,VALID,19.9818,VALID,139,VALID,1.37648,
2002-12-20, 01:46:00,VALID,915.201,VALID,0,VALID,97.5664,VALID,0,VALID,19.9621,VALID,139,VALID,1.08364,
2002-12-20, 01:47:00,VALID,915.172,VALID,0,VALID,97.6058,VALID,0.0169808,VALID,19.9462,VALID,127,VALID,0.928504,
2002-12-20, 01:48:00,VALID,915.146,VALID,0,VALID,97.6503,VALID,0,VALID,19.9234,VALID,122,VALID,1.08529,
2002-12-20, 01:49:00,VALID,915.143,VALID,0,VALID,97.6859,VALID,0,VALID,19.9107,VALID,108,VALID,1.10113,
2002-12-20, 01:50:00,VALID,915.128,VALID,0,VALID,97.6389,VALID,0.0169808,VALID,19.898,VALID,108,VALID,1.08996,
2002-12-20, 01:51:00,VALID,915.115,VALID,0,VALID,97.6313,VALID,0.0169808,VALID,19.8878,VALID,109,VALID,0.931799,
2002-12-20, 01:52:00,VALID,915.092,VALID,0,VALID,97.6134,VALID,-0.101885,VALID,19.8896,VALID,91,VALID,1.1636,
2002-12-20, 01:53:00,VALID,915.078,VALID,0,VALID,97.5321,VALID,-0.101885,VALID,19.9055,VALID,105,VALID,1.18419,
2002-12-20, 01:54:00,VALID,915.051,VALID,0,VALID,97.4532,VALID,-0.101885,VALID,19.9154,VALID,105,VALID,1.28993,
2002-12-20, 01:55:00,VALID,915.045,VALID,0,VALID,97.3451,VALID,-0.101885,VALID,19.9448,VALID,108,VALID,0.953993,
2002-12-20, 01:56:00,VALID,915.028,VALID,0,VALID,97.2727,VALID,-0.101885,VALID,19.9477,VALID,62,VALID,0.608665,
2002-12-20, 01:57:00,VALID,915.004,VALID,0,VALID,97.2167,VALID,-0.101885,VALID,19.9443,VALID,85,VALID,0.896115,
2002-12-20, 01:58:00,VALID,914.968,VALID,0,VALID,97.1926,VALID,-0.101885,VALID,19.9579,VALID,97,VALID,0.662684,
2002-12-20, 01:59:00,VALID,914.963,VALID,0,VALID,97.1417,VALID,-0.101885,VALID,19.9483,VALID,67,VALID,0.380445,
2002-12-20, 02:00:00,VALID,914.928,VALID,0,VALID,97.1328,VALID,-0.0849042,VALID,19.9383,VALID,77,VALID,0.64605,
2002-12-20, 02:01:00,VALID,914.903,VALID,0,VALID,97.1989,VALID,-0.0849042,VALID,19.9383,VALID,138,VALID,1.05143,
2002-12-20, 02:02:00,VALID,914.87,VALID,0,VALID,97.2561,VALID,-0.101885,VALID,19.9383,VALID,131,VALID,0.850616,
2002-12-20, 02:03:00,VALID,914.84,VALID,0,VALID,97.2994,VALID,-0.0679233,VALID,19.9222,VALID,117,VALID,0.661951,
2002-12-20, 02:04:00,VALID,914.83,VALID,0,VALID,97.3591,VALID,-0.0679233,VALID,19.9222,VALID,145,VALID,1.26884,
2002-12-20, 02:05:00,VALID,914.797,VALID,0,VALID,97.4342,VALID,-0.101885,VALID,19.9291,VALID,152,VALID,1.03693,
2002-12-20, 02:06:00,VALID,914.783,VALID,0,VALID,97.466,VALID,-0.101885,VALID,19.9224,VALID,119,VALID,0.849826,
2002-12-20, 02:07:00,VALID,914.789,VALID,0,VALID,97.4329,VALID,0.0169808,VALID,19.9174,VALID,82,VALID,0.629557,
2002-12-20, 02:08:00,VALID,914.78,VALID,0,VALID,97.4456,VALID,0,VALID,19.8983,VALID,71,VALID,0.611269,
2002-12-20, 02:09:00,VALID,914.771,VALID,0,VALID,97.4596,VALID,0,VALID,19.8983,VALID,54,VALID,0.432221,
2002-12-20, 02:10:00,VALID,914.74,VALID,0,VALID,97.4837,VALID,-0.0169808,VALID,19.9018,VALID,114,VALID,1.45175,
2002-12-20, 02:11:00,VALID,914.713,VALID,0,VALID,97.4634,VALID,-0.0339617,VALID,19.8951,VALID,84,VALID,0.959991,
2002-12-20, 02:12:00,VALID,914.684,VALID,0,VALID,97.4583,VALID,0,VALID,19.8891,VALID,97,VALID,1.24002,
2002-12-20, 02:13:00,VALID,914.639,VALID,0,VALID,97.4799,VALID,0,VALID,19.8789,VALID,109,VALID,0.896701,
2002-12-20, 02:14:00,VALID,914.605,VALID,0,VALID,97.4837,VALID,0.0169808,VALID,19.899,VALID,105,VALID,1.49077,
2002-12-20, 02:15:00,VALID,914.551,VALID,0,VALID,97.3553,VALID,-0.0169808,VALID,19.908,VALID,115,VALID,1.28104,
2002-12-20, 02:16:00,VALID,914.515,VALID,0,VALID,97.3846,VALID,-0.101885,VALID,19.9227,VALID,124,VALID,1.76011,
2002-12-20, 02:17:00,VALID,914.469,VALID,0,VALID,97.4036,VALID,-0.118866,VALID,19.9383,VALID,134,VALID,1.47538,
2002-12-20, 02:18:00,VALID,914.449,VALID,0,VALID,97.3846,VALID,-0.101885,VALID,19.9617,VALID,138,VALID,1.79102,
2002-12-20, 02:19:00,VALID,914.407,VALID,0,VALID,97.3731,VALID,-0.101885,VALID,19.9547,VALID,127,VALID,1.44401,
2002-12-20, 02:20:00,VALID,914.392,VALID,0,VALID,97.3566,VALID,-0.101885,VALID,19.9614,VALID,122,VALID,1.70289,
2002-12-20, 02:21:00,VALID,914.38,VALID,0,VALID,97.3401,VALID,-0.0849042,VALID,19.9584,VALID,125,VALID,1.05279,
2002-12-20, 02:22:00,VALID,914.348,VALID,0,VALID,97.3375,VALID,0.0169808,VALID,19.9597,VALID,124,VALID,1.6898,
2002-12-20, 02:23:00,VALID,914.321,VALID,0,VALID,97.3286,VALID,0.0169808,VALID,19.9567,VALID,137,VALID,1.51681,
2002-12-20, 02:24:00,VALID,914.304,VALID,0,VALID,97.3095,VALID,0,VALID,19.9699,VALID,124,VALID,1.18815,
2002-12-20, 02:25:00,VALID,914.287,VALID,0,VALID,97.2498,VALID,0,VALID,19.9661,VALID,136,VALID,1.99089,
2002-12-20, 02:26:00,VALID,914.275,VALID,0,VALID,97.1926,VALID,0,VALID,19.9825,VALID,144,VALID,2.50876,
2002-12-20, 02:27:00,VALID,914.269,VALID,0,VALID,97.0209,VALID,0,VALID,20.0148,VALID,143,VALID,2.6117,
2002-12-20, 02:28:00,VALID,914.258,VALID,0,VALID,96.8327,VALID,0,VALID,20.0434,VALID,144,VALID,2.24403,
2002-12-20, 02:29:00,VALID,914.261,VALID,0,VALID,96.6089,VALID,0.0169808,VALID,20.076,VALID,148,VALID,1.91075,
2002-12-20, 02:30:00,VALID,914.281,VALID,0,VALID,96.4665,VALID,0,VALID,20.0886,VALID,148,VALID,1.93685,
2002-12-20, 02:31:00,VALID,914.304,VALID,0,VALID,96.3317,VALID,0,VALID,20.1018,VALID,146,VALID,1.98112,
2002-12-20, 02:32:00,VALID,914.321,VALID,0,VALID,96.2134,VALID,0.0169808,VALID,20.1217,VALID,144,VALID,1.45762,
2002-12-20, 02:33:00,VALID,914.34,VALID,0,VALID,96.1079,VALID,0,VALID,20.1411,VALID,144,VALID,1.59797,
2002-12-20, 02:34:00,VALID,914.372,VALID,0,VALID,96.0481,VALID,0,VALID,20.1239,VALID,148,VALID,1.80584,
2002-12-20, 02:35:00,VALID,914.396,VALID,0,VALID,96.029,VALID,0,VALID,20.1344,VALID,152,VALID,1.34067,
2002-12-20, 02:36:00,VALID,914.393,VALID,0,VALID,96.0023,VALID,0.0169808,VALID,20.1249,VALID,146,VALID,1.71115,
2002-12-20, 02:37:00,VALID,914.413,VALID,0,VALID,95.9782,VALID,-0.0849042,VALID,20.123,VALID,146,VALID,1.4911,
2002-12-20, 02:38:00,VALID,914.406,VALID,0,VALID,95.9248,VALID,-0.101885,VALID,20.119,VALID,134,VALID,1.49124,
2002-12-20, 02:39:00,VALID,914.411,VALID,0,VALID,95.8701,VALID,-0.101885,VALID,20.1324,VALID,130,VALID,1.48712,
2002-12-20, 02:40:00,VALID,914.428,VALID,0,VALID,95.7747,VALID,-0.0849042,VALID,20.1324,VALID,159,VALID,2.06779,
2002-12-20, 02:41:00,VALID,914.416,VALID,0,VALID,95.495,VALID,-0.0679233,VALID,20.1615,VALID,140,VALID,1.66501,
2002-12-20, 02:42:00,VALID,914.406,VALID,0,VALID,95.2686,VALID,-0.0849042,VALID,20.1933,VALID,146,VALID,1.46984,
2002-12-20, 02:43:00,VALID,914.395,VALID,0,VALID,95.1504,VALID,-0.101885,VALID,20.2232,VALID,135,VALID,1.48763,
2002-12-20, 02:44:00,VALID,914.377,VALID,0,VALID,95.0957,VALID,-0.0849042,VALID,20.2192,VALID,139,VALID,1.67566,
2002-12-20, 02:45:00,VALID,914.353,VALID,0,VALID,95.0156,VALID,-0.0849042,VALID,20.2192,VALID,147,VALID,1.87584,
2002-12-20, 02:46:00,VALID,914.35,VALID,0,VALID,94.9711,VALID,-0.101885,VALID,20.2391,VALID,137,VALID,1.2392,
2002-12-20, 02:47:00,VALID,914.334,VALID,0,VALID,94.8935,VALID,-0.101885,VALID,20.2453,VALID,123,VALID,1.26089,
2002-12-20, 02:48:00,VALID,914.302,VALID,0,VALID,94.863,VALID,-0.101885,VALID,20.249,VALID,124,VALID,1.24783,
2002-12-20, 02:49:00,VALID,914.275,VALID,0,VALID,94.8121,VALID,-0.0849042,VALID,20.2423,VALID,121,VALID,1.35091,
2002-12-20, 02:50:00,VALID,914.268,VALID,0,VALID,94.7384,VALID,-0.101885,VALID,20.249,VALID,118,VALID,1.47088,
2002-12-20, 02:51:00,VALID,914.247,VALID,0,VALID,94.5145,VALID,-0.0679233,VALID,20.2778,VALID,121,VALID,1.26816,
2002-12-20, 02:52:00,VALID,914.24,VALID,0,VALID,94.2323,VALID,0.0339617,VALID,20.3089,VALID,118,VALID,1.90051,
2002-12-20, 02:53:00,VALID,914.242,VALID,0,VALID,94.1369,VALID,-0.0169808,VALID,20.3347,VALID,104,VALID,1.46496,
2002-12-20, 02:54:00,VALID,914.203,VALID,0,VALID,94.039,VALID,0,VALID,20.3447,VALID,126,VALID,1.88043,
2002-12-20, 02:55:00,VALID,914.185,VALID,0,VALID,93.7694,VALID,0.0169808,VALID,20.3864,VALID,117,VALID,2.19444,
2002-12-20, 02:56:00,VALID,914.159,VALID,0,VALID,93.0687,VALID,0.0339617,VALID,20.4672,VALID,106,VALID,1.80398,
2002-12-20, 02:57:00,VALID,914.129,VALID,0,VALID,92.6389,VALID,0,VALID,20.5736,VALID,82,VALID,1.70503,
2002-12-20, 02:58:00,VALID,914.115,VALID,0,VALID,92.3872,VALID,0.0169808,VALID,20.6226,VALID,98,VALID,1.26631,
2002-12-20, 02:59:00,VALID,914.089,VALID,0,VALID,92.2956,VALID,0,VALID,20.6283,VALID,107,VALID,1.21212,
2002-12-20, 03:00:00,VALID,914.052,VALID,0,VALID,92.2842,VALID,0,VALID,20.6412,VALID,119,VALID,1.38845,
2002-12-20, 03:01:00,VALID,914.019,VALID,0,VALID,92.0553,VALID,0,VALID,20.6474,VALID,112,VALID,2.55425,
2002-12-20, 03:02:00,VALID,914.003,VALID,0,VALID,91.6751,VALID,0.0339617,VALID,20.6829,VALID,86,VALID,1.90483,
2002-12-20, 03:03:00,VALID,913.984,VALID,0,VALID,91.7361,VALID,0.0339617,VALID,20.7088,VALID,119,VALID,1.6875,
2002-12-20, 03:04:00,VALID,913.982,VALID,0,VALID,91.7577,VALID,0.0509425,VALID,20.7155,VALID,125,VALID,1.91199,
2002-12-20, 03:05:00,VALID,913.958,VALID,0,VALID,91.8734,VALID,0.0169808,VALID,20.7123,VALID,124,VALID,1.5812,
2002-12-20, 03:06:00,VALID,913.947,VALID,0,VALID,92.1125,VALID,0.0339617,VALID,20.6767,VALID,119,VALID,1.60135,
2002-12-20, 03:07:00,VALID,913.938,VALID,0,VALID,92.2231,VALID,-0.0679233,VALID,20.6629,VALID,107,VALID,2.01259,
2002-12-20, 03:08:00,VALID,913.92,VALID,0,VALID,92.1189,VALID,-0.0849042,VALID,20.6522,VALID,131,VALID,1.77699,
2002-12-20, 03:09:00,VALID,913.921,VALID,0,VALID,92.0642,VALID,-0.0849042,VALID,20.6694,VALID,130,VALID,1.58319,
2002-12-20, 03:10:00,VALID,913.919,VALID,0,VALID,91.8861,VALID,-0.0849042,VALID,20.6723,VALID,121,VALID,1.90694,
2002-12-20, 03:11:00,VALID,913.889,VALID,0,VALID,92.0095,VALID,-0.0849042,VALID,20.6815,VALID,129,VALID,1.44271,
2002-12-20, 03:12:00,VALID,913.861,VALID,0,VALID,92.0731,VALID,-0.0849042,VALID,20.6751,VALID,135,VALID,1.38043,
2002-12-20, 03:13:00,VALID,913.848,VALID,0,VALID,92.1189,VALID,-0.0849042,VALID,20.6592,VALID,127,VALID,1.29167,
2002-12-20, 03:14:00,VALID,913.833,VALID,0,VALID,92.1506,VALID,-0.101885,VALID,20.6425,VALID,109,VALID,1.35559,
2002-12-20, 03:15:00,VALID,913.809,VALID,0,VALID,92.1939,VALID,-0.0509425,VALID,20.653,VALID,79,VALID,1.54519,
2002-12-20, 03:16:00,VALID,913.796,VALID,0,VALID,92.1761,VALID,-0.101885,VALID,20.6433,VALID,134,VALID,1.92325,
2002-12-20, 03:17:00,VALID,913.799,VALID,0,VALID,92.0654,VALID,-0.0679233,VALID,20.6325,VALID,128,VALID,1.86316,
2002-12-20, 03:18:00,VALID,913.791,VALID,0,VALID,92.012,VALID,-0.0679233,VALID,20.6629,VALID,119,VALID,2.06055,
2002-12-20, 03:19:00,VALID,913.763,VALID,0,VALID,92.0515,VALID,-0.0339617,VALID,20.6619,VALID,144,VALID,1.54731,
2002-12-20, 03:20:00,VALID,913.753,VALID,0,VALID,92.2931,VALID,-0.0679233,VALID,20.6492,VALID,114,VALID,1.41264,
2002-12-20, 03:21:00,VALID,913.748,VALID,0,VALID,92.4253,VALID,-0.0509425,VALID,20.6037,VALID,129,VALID,1.69954,
2002-12-20, 03:22:00,VALID,913.745,VALID,0,VALID,92.6008,VALID,0.0169808,VALID,20.5828,VALID,135,VALID,1.12937,
2002-12-20, 03:23:00,VALID,913.726,VALID,0,VALID,92.41,VALID,0.0679233,VALID,20.5768,VALID,110,VALID,2.32978,
2002-12-20, 03:24:00,VALID,913.695,VALID,0,VALID,92.1303,VALID,0.0169808,VALID,20.6186,VALID,125,VALID,1.40299,
2002-12-20, 03:25:00,VALID,913.686,VALID,0,VALID,92.101,VALID,0.0509425,VALID,20.6476,VALID,121,VALID,1.28038,
2002-12-20, 03:26:00,VALID,913.677,VALID,0,VALID,92.0642,VALID,0.0169808,VALID,20.6471,VALID,123,VALID,1.98343,
2002-12-20, 03:27:00,VALID,913.679,VALID,0,VALID,92.0731,VALID,0,VALID,20.6476,VALID,133,VALID,2.03632,
2002-12-20, 03:28:00,VALID,913.699,VALID,0,VALID,92.1239,VALID,0.0169808,VALID,20.6541,VALID,128,VALID,1.00574,
2002-12-20, 03:29:00,VALID,913.691,VALID,0,VALID,92.157,VALID,0.0679233,VALID,20.6474,VALID,149,VALID,1.70739,
2002-12-20, 03:30:00,VALID,913.689,VALID,0,VALID,92.3465,VALID,0.0339617,VALID,20.631,VALID,138,VALID,1.70052,
2002-12-20, 03:31:00,VALID,913.697,VALID,0,VALID,92.5283,VALID,0.0339617,VALID,20.5987,VALID,143,VALID,1.45334,
2002-12-20, 03:32:00,VALID,913.7,VALID,0,VALID,92.8017,VALID,0.0509425,VALID,20.5833,VALID,149,VALID,1.76136,